Location: Laupheim
(48.2265°N, 9.8829°E)
Time: 05:08:31
(UTC+02:00)

ISS - Pass Details

Date: 04 January 2018
Orbit: 402 x 408 km, 51.6° (Epoch: 22 July)

Event Time Altitude Azimuth Distance (km) Brightness Sun altitude
Exits shadow 07:00:33 18° 293° (WNW) 1,106 -2.3 -11.2°
Maximum altitude 07:02:45 44° 0° (N) 590 -3.2 -10.8°
Drops below altitude 10° 07:06:01 10° 75° (ENE) 1,507 -0.1 -10.3°
Sets 07:08:11 0° 82° (E) 2,374 1.2 -10.0°
